Regional Weather Roundup
Issued by NWS Little Rock, AR

Home | Current Version | Previous Version | Graphics & Text | Print | Product List | Glossary On
Versions: 1 2 3 4 5 6 7 8 9 10 11 12 13 14 15 16 17 18 19 20 21 22 23 24 25 26 27
000
ASUS44 KLZK 260505
RWRLZK

WEATHER ROUNDUP FOR ARKANSAS
NATIONAL WEATHER SERVICE LITTLE ROCK AR
1200 AM CDT THU MAY 26 2016

NOTE: "FAIR" INDICATES FEW OR NO CLOUDS BELOW 12,000 FEET WITH NO
SIGNIFICANT WEATHER AND/OR OBSTRUCTIONS TO VISIBILITY.

ARZ001-003-010-029-260600-
NORTHWEST ARKANSAS

CITY           SKY/WX    TMP DP  RH WIND       PRES   REMARKS
FAYETTEVILLE   CLEAR     72  72 100 CALM      29.97R
FORT SMITH     MOCLDY    75  71  87 NE3       29.96R
HARRISON       CLOUDY    70  69  97 SE8       30.01S
BENTONVILLE    CLEAR     72  66  83 S3        29.98R
ROGERS           N/A     72  70  93 SE8       29.98S
SILOAM SPGS    CLEAR     73  64  73 S7        29.97S
HIGHFILL       CLEAR     73  71  93 S6        29.97R
$$

ARZ004-005-016-260600-
NORTH CENTRAL ARKANSAS

CITY           SKY/WX    TMP DP  RH WIND       PRES   REMARKS
BATESVILLE     PTCLDY    73  70  88 SE6       30.01F
FLIPPIN        PTCLDY   N/A N/A N/A CALM      29.97S
MTN HOME       PTCLDY    70  68  93 SE3       29.99F
$$

ARZ040-041-260600-
WEST CENTRAL ARKANSAS

CITY           SKY/WX    TMP DP  RH WIND       PRES   REMARKS
MENA           MOCLDY    81  77  89 S5        30.01S HX  88
MOUNT IDA      MOCLDY    80  73  79 MISG      29.99R
$$

ARZ009-017-025-026-028-260600-
NORTHEAST ARKANSAS

CITY           SKY/WX    TMP DP  RH WIND       PRES   REMARKS
CORNING          N/A     70  70 100 SE3       30.03S
JONESBORO      PTCLDY    72  68  87 S9        30.02F
NEWPORT        PTCLDY    74  72  93 S10       30.02F
WALNUT RIDGE   CLEAR     72  66  83 S9        30.01F
BLYTHEVILLE    CLEAR     69  64  84 S7        30.04F
$$

ARZ022-023-033-042-044-260600-
CENTRAL ARKANSAS

CITY           SKY/WX    TMP DP  RH WIND       PRES   REMARKS
LITTLE ROCK    PTCLDY    79  73  82 S12       30.01S
N LITTLE ROCK    N/A     77  73  86 S7        29.99S
JACKSONVILLE   CLEAR     78  73  85 S6        30.00S
SEARCY         MOCLDY    73  73 100 S3        30.02F
HOT SPRINGS    MOCLDY    79  75  87 S9        30.02R
RUSSELLVILLE   MOCLDY    76  74  93 CALM      29.98S
CLINTON        MOCLDY    68  68 100 CALM      30.01S
$$

ARZ036-260600-
EAST ARKANSAS

CITY           SKY/WX    TMP DP  RH WIND       PRES   REMARKS
WEST MEMPHIS   PTCLDY    72  65  78 S9        30.03F
$$

ARZ050-053-066-070-073-260600-
SOUTHWEST ARKANSAS

CITY           SKY/WX    TMP DP  RH WIND       PRES   REMARKS
ARKADELPHIA    MOCLDY    77  77 100 CALM      30.02R
CAMDEN         CLOUDY    73  68  83 S6        30.03S
TEXARKANA      CLOUDY    80  73  79 S12       30.01R
EL DORADO      PTCLDY    75  73  93 SE6       30.04S
DE QUEEN       CLOUDY    81  75  82 S7        29.97R HX  87
$$

ARZ056-057-069-260600-
SOUTHEAST ARKANSAS

CITY           SKY/WX    TMP DP  RH WIND       PRES   REMARKS
PINE BLUFF     MOCLDY    76  71  85 S7        30.03S
STUTTGART      MOCLDY    79  66  65 S16       30.03S
MONTICELLO     CLOUDY    76  70  82 S6        30.05S

$$






USA.gov is the U.S. government's official web portal to all federal, state and local government web resources and services.